Montgomery, AL

6:48 AM CDT on August 27, 2016 (GMT -0500)
Maxwell Air Force Base

Weather History for KMXF - July, 2013

Change the Weather History Date:

Friday, July 12, 2013

  Actual Average Record
Temperature  
Mean Temperature 80 °F -  
Max Temperature 87 °F 90 °F 98 °F (2006)
Min Temperature 72 °F 72 °F 71 °F (1997)
Cooling Degree Days 14    
Growing Degree Days 30 (Base 50)    
Moisture  
Dew Point 69 °F    
Average Humidity 75    
Maximum Humidity 88    
Minimum Humidity 57    
Precipitation  
Precipitation 0.32 in - - ()
Sea Level Pressure  
Sea Level Pressure 29.90 in    
Wind  
Wind Speed 3 mph (WNW)    
Max Wind Speed 14 mph    
Max Gust Speed 22 mph    
Visibility 9 miles    
Events Rain , Thunderstorm    
Averages and records for this station are not official NWS values.
T = Trace of Precipitation, MM = Missing Value Source: NWS Daily Summary

Daily Weather History Graph

Daily Weather History Graph

Search for Another Location

Airport or City:

Trip Planner

Search our weather history database for the weather conditions in past years. The results will help you decide how hot, cold, wet, or windy it might be!

Date:

Astronomy

Jul. 12, 2013 Rise Set
Actual Time 5:47 AM CDT 7:54 PM CDT
Civil Twilight 5:19 AM CDT 8:22 PM CDT
Nautical Twilight 4:45 AM CDT 8:56 PM CDT
Astronomical Twilight 4:09 AM CDT 9:32 PM CDT
Moon 9:46 AM CDT (7/12) 10:23 PM CDT (7/12)
Length of Visible Light 15h 02m
Length of Day
14h 06m
Waxing Crescent, 17% of the Moon is Illuminated
Jul 12
Waxing Crescent
Jul 15
First Quarter
Jul 22
Full
Jul 29
Last Quarter
Aug 6
New

Hourly Weather History & Observations

Time (CDT) Temp. Heat Index Dew Point Humidity Pressure Visibility Wind Dir Wind Speed Gust Speed Precip Events Conditions
12:58 AM 73.9 °F - 68.9 °F 84% 29.92 in 10.0 mi West 2.3 mph - N/A   Clear
1:58 AM 73.6 °F - 68.5 °F 84% 29.91 in 10.0 mi Calm Calm - N/A   Mostly Cloudy
2:58 AM 73.2 °F - 68.5 °F 85% 29.91 in 10.0 mi SW 2.3 mph - N/A   Scattered Clouds
3:18 AM 73.4 °F - 68.0 °F 83% 29.90 in 9.0 mi SW 2.3 mph - N/A   Mostly Cloudy
3:53 AM 73.4 °F - 68.0 °F 83% 29.89 in 9.0 mi SW 3.5 mph - N/A   Mostly Cloudy
3:58 AM 72.7 °F - 68.0 °F 85% 29.91 in 9.0 mi WSW 2.3 mph - N/A   Scattered Clouds
4:33 AM 73.4 °F - 68.0 °F 83% 29.90 in 10.0 mi WNW 3.5 mph - N/A   Mostly Cloudy
4:38 AM 73.4 °F - 68.0 °F 83% 29.90 in 10.0 mi WNW 4.6 mph - N/A   Mostly Cloudy
4:53 AM 73.4 °F - 68.0 °F 83% 29.90 in 10.0 mi Variable 3.5 mph - N/A   Mostly Cloudy
4:58 AM 73.2 °F - 68.7 °F 86% 29.91 in 10.0 mi Variable 3.5 mph - N/A   Mostly Cloudy
5:08 AM 73.4 °F - 68.0 °F 83% 29.90 in 10.0 mi Variable 3.5 mph - N/A   Mostly Cloudy
5:28 AM 73.4 °F - 68.0 °F 83% 29.90 in 10.0 mi WNW 3.5 mph - N/A   Overcast
5:58 AM 73.0 °F - 68.7 °F 86% 29.92 in 9.0 mi Calm Calm - N/A   Mostly Cloudy
6:13 AM 73.4 °F - 68.0 °F 83% 29.91 in 8.0 mi West 2.3 mph - N/A   Mostly Cloudy
6:18 AM 73.4 °F - 68.0 °F 83% 29.91 in 8.0 mi WSW 2.3 mph - N/A   Scattered Clouds
6:48 AM 73.4 °F - 68.0 °F 83% 29.91 in 6.0 mi Calm Calm - N/A   Haze
6:58 AM 73.6 °F - 68.9 °F 85% 29.93 in 7.0 mi West 2.3 mph - N/A   Mostly Cloudy
7:33 AM 73.4 °F - 69.8 °F 88% 29.92 in 9.0 mi WNW 3.5 mph - N/A   Overcast
7:48 AM 75.2 °F - 69.8 °F 83% 29.93 in 10.0 mi Variable 1.2 mph - N/A   Overcast
7:58 AM 75.2 °F - 69.8 °F 83% 29.94 in 10.0 mi Calm Calm - N/A   Overcast
8:03 AM 75.2 °F - 69.8 °F 83% 29.93 in 10.0 mi Calm Calm - N/A Rain Light Rain
8:13 AM 75.2 °F - 69.8 °F 83% 29.93 in 10.0 mi Variable 1.2 mph - N/A   Overcast
8:16 AM 75.2 °F - 69.8 °F 83% 29.93 in 10.0 mi Variable 1.2 mph - N/A   Overcast
8:28 AM 77.0 °F - 69.8 °F 78% 29.93 in 10.0 mi South 3.5 mph - N/A   Mostly Cloudy
8:58 AM 77.7 °F - 68.9 °F 74% 29.94 in 10.0 mi SW 3.5 mph - 0.00 in   Mostly Cloudy
9:50 AM 80.6 °F 83.2 °F 68.0 °F 65% 29.92 in 10.0 mi Variable 3.5 mph - N/A   Scattered Clouds
9:58 AM 81.0 °F 84.1 °F 69.1 °F 67% 29.93 in 10.0 mi Variable 4.6 mph - N/A   Scattered Clouds
10:58 AM 84.6 °F 89.1 °F 70.2 °F 62% 29.91 in 10.0 mi NW 3.5 mph - N/A   Scattered Clouds
11:03 AM 84.2 °F 88.4 °F 69.8 °F 62% 29.91 in 10.0 mi North 2.3 mph - N/A   Mostly Cloudy
11:08 AM 84.2 °F 88.4 °F 69.8 °F 62% 29.91 in 10.0 mi Variable 2.3 mph - N/A   Scattered Clouds
11:10 AM 84.2 °F 88.4 °F 69.8 °F 62% 29.91 in 10.0 mi West 3.5 mph - N/A   Light Drizzle
11:18 AM 84.2 °F 88.4 °F 69.8 °F 62% 29.91 in 10.0 mi WNW 4.6 mph - N/A   Mostly Cloudy
11:28 AM 84.2 °F 88.4 °F 69.8 °F 62% 29.91 in 10.0 mi Variable 1.2 mph - N/A   Partly Cloudy
11:58 AM 87.1 °F 92.0 °F 70.3 °F 57% 29.91 in 10.0 mi West 2.3 mph - 0.00 in   Mostly Cloudy
12:18 PM 86.0 °F 90.4 °F 69.8 °F 58% 29.90 in 10.0 mi Variable 2.3 mph - N/A   Mostly Cloudy
12:28 PM 86.0 °F 90.4 °F 69.8 °F 58% 29.90 in 10.0 mi SW 3.5 mph - N/A   Mostly Cloudy
12:58 PM 86.7 °F 91.7 °F 70.2 °F 58% 29.90 in 10.0 mi SW 5.8 mph - N/A   Scattered Clouds
1:03 PM 86.0 °F 90.4 °F 69.8 °F 58% 29.89 in 10.0 mi WSW 3.5 mph - N/A Rain Light Rain
1:13 PM 84.2 °F 89.6 °F 71.6 °F 66% 29.88 in 1.2 mi NNW 5.8 mph - N/A Rain Rain
1:18 PM 84.2 °F 89.6 °F 71.6 °F 66% 29.89 in 0.8 mi NW 3.5 mph - N/A Rain , Thunderstorm Heavy Thunderstorms and Rain
1:23 PM 82.4 °F 87.2 °F 71.6 °F 70% 29.88 in 1.2 mi North 2.3 mph - N/A Rain , Thunderstorm Light Thunderstorms and Rain
1:28 PM 82.4 °F 87.2 °F 71.6 °F 70% 29.88 in 5.0 mi North 3.5 mph - N/A Rain , Thunderstorm Light Thunderstorms and Rain
1:32 PM 82.4 °F 87.2 °F 71.6 °F 70% 29.88 in 7.0 mi North 1.2 mph - N/A Rain , Thunderstorm Light Thunderstorms and Rain
1:58 PM 80.1 °F 83.0 °F 69.6 °F 70% 29.89 in 8.0 mi WNW 4.6 mph - 0.14 in Rain , Thunderstorm Light Thunderstorms and Rain
2:15 PM 78.8 °F - 69.8 °F 74% 29.89 in 9.0 mi WSW 5.8 mph - N/A Rain Light Rain
2:17 PM 78.8 °F - 69.8 °F 74% 29.89 in 10.0 mi SW 5.8 mph - N/A   Partly Cloudy
2:58 PM 80.6 °F 83.6 °F 69.1 °F 68% 29.90 in 10.0 mi Variable 5.8 mph - 0.01 in   Partly Cloudy
3:58 PM 82.4 °F 85.4 °F 68.0 °F 62% 29.86 in 10.0 mi SW 4.6 mph - N/A   Clear
4:58 PM 87.3 °F 92.4 °F 70.2 °F 57% 29.87 in 10.0 mi WSW 3.5 mph - N/A   Clear
5:58 PM 82.4 °F 86.3 °F 70.0 °F 66% 29.88 in 10.0 mi WSW 5.8 mph - N/A Thunderstorm Clear
6:35 PM 80.6 °F 83.2 °F 68.0 °F 65% 29.89 in 10.0 mi NW 5.8 mph - N/A Thunderstorm Thunderstorm
6:37 PM 80.6 °F 83.2 °F 68.0 °F 65% 29.88 in 10.0 mi NNW 4.6 mph - N/A Rain , Thunderstorm Light Thunderstorms and Rain
6:38 PM 80.6 °F 83.9 °F 69.8 °F 70% 29.89 in 9.0 mi North 5.8 mph - N/A Rain , Thunderstorm Light Thunderstorms and Rain
6:52 PM 77.0 °F - 68.0 °F 74% 29.88 in 1.5 mi North 6.9 mph - N/A Rain Rain
6:57 PM 77.0 °F - 69.8 °F 78% 29.89 in 1.2 mi Variable 1.2 mph - N/A Rain Rain
6:58 PM 77.0 °F - 68.9 °F 76% 29.90 in 1.2 mi Variable 1.2 mph - 0.07 in Rain Rain
7:03 PM 77.0 °F - 69.8 °F 78% 29.89 in 2.0 mi Calm Calm - N/A Rain Light Rain
7:08 PM 77.0 °F - 69.8 °F 78% 29.88 in 6.0 mi SW 2.3 mph - N/A Rain Light Rain
7:15 PM 77.0 °F - 69.8 °F 78% 29.87 in 10.0 mi SW 4.6 mph - N/A   Scattered Clouds
7:43 PM 77.0 °F - 69.8 °F 78% 29.88 in 9.0 mi ENE 10.4 mph - N/A Rain Light Rain
7:53 PM 77.0 °F - 68.0 °F 74% 29.89 in 6.0 mi Variable 3.5 mph - N/A Rain , Thunderstorm Light Thunderstorms and Rain
7:58 PM 77.2 °F - 67.8 °F 73% 29.91 in 9.0 mi NNE 13.8 mph 21.9 mph 0.05 in Rain , Thunderstorm Light Thunderstorms and Rain
7:59 PM 77.0 °F - 68.0 °F 74% 29.90 in 10.0 mi NNE 5.8 mph 21.9 mph N/A Thunderstorm Thunderstorm
8:08 PM 77.0 °F - 69.8 °F 78% 29.90 in 10.0 mi East 4.6 mph - N/A   Mostly Cloudy
8:10 PM 77.0 °F - 69.8 °F 78% 29.90 in 10.0 mi East 3.5 mph - N/A Rain Light Rain
8:30 PM 77.0 °F - 69.8 °F 78% 29.90 in 10.0 mi SSE 3.5 mph - N/A   Scattered Clouds
8:45 PM 77.0 °F - 69.8 °F 78% 29.91 in 10.0 mi ENE 5.8 mph - N/A Thunderstorm Thunderstorm
8:48 PM 77.0 °F - 69.8 °F 78% 29.92 in 10.0 mi ENE 5.8 mph - N/A Rain , Thunderstorm Light Thunderstorms and Rain
8:58 PM 75.9 °F - 69.8 °F 81% 29.92 in 8.0 mi ENE 5.8 mph - 0.00 in Rain , Thunderstorm Light Thunderstorms and Rain
9:00 PM 75.2 °F - 69.8 °F 83% 29.91 in 9.0 mi NE 4.6 mph - N/A Rain Light Rain
9:09 PM 75.2 °F - 69.8 °F 83% 29.91 in 10.0 mi NW 2.3 mph - N/A Rain , Thunderstorm Light Thunderstorms and Rain
9:30 PM 75.2 °F - 68.0 °F 78% 29.90 in 4.0 mi NW 5.8 mph - N/A Rain Light Rain
9:50 PM 73.4 °F - 68.0 °F 83% 29.90 in 10.0 mi WNW 4.6 mph - N/A   Partly Cloudy
9:58 PM 73.4 °F - 67.6 °F 82% 29.91 in 10.0 mi NNW 5.8 mph - 0.05 in   Clear
10:58 PM 73.0 °F - 67.3 °F 82% 29.92 in 10.0 mi NE 3.5 mph - N/A   Clear
11:58 PM 72.3 °F - 67.3 °F 84% 29.91 in 10.0 mi WNW 3.5 mph - N/A   Clear